FDX448 YMAV-YMML

Flight info

Callsign FDX448
Flight time 0h 23m
Altitude 6000
Route ML
Aircraft MD11/H-SDE1E2E3FGHIJ2J3J4J5M1RWXY/LB1D1

Departure

Time 2026-04-21 10:01
Airport Melbourne Avalon International Airport (YMAV)

Arrival

Time 2026-04-21 10:24
Airport Melbourne Airport (YMML)
Time Latitude Longitude Altitude Speed Heading
2026-04-21 09:43 -38.02743 144.47490 42 ft 0 kts
2026-04-21 09:52 -38.02746 144.47489 43 ft 2 kts
2026-04-21 09:52 -38.02762 144.47487 41 ft 2 kts
2026-04-21 09:52 -38.02778 144.47485 41 ft 2 kts
2026-04-21 09:52 -38.02795 144.47483 43 ft 2 kts
2026-04-21 09:53 -38.02811 144.47481 42 ft 2 kts 310°
2026-04-21 09:53 -38.02815 144.47485 43 ft 0 kts 284°
2026-04-21 09:57 -38.02811 144.47459 43 ft 7 kts 278°
2026-04-21 09:57 -38.02800 144.47356 43 ft 16 kts 277°
2026-04-21 09:58 -38.02785 144.47201 43 ft 4 kts 278°
2026-04-21 09:58 -38.02785 144.47200 43 ft 0 kts 278°
2026-04-21 09:59 -38.02784 144.47197 41 ft 1 kts 288°
2026-04-21 09:59 -38.02769 144.47164 43 ft 7 kts 301°
2026-04-21 09:59 -38.02743 144.47077 42 ft 14 kts 282°
2026-04-21 10:00 -38.02743 144.46952 41 ft 7 kts 248°
2026-04-21 10:00 -38.02764 144.46938 39 ft 6 kts 202°
2026-04-21 10:00 -38.02834 144.46922 40 ft 20 kts 188°
2026-04-21 10:00 -38.03245 144.46853 44 ft 108 kts 186°
2026-04-21 10:01 -38.04286 144.46676 54 ft 188 kts 187°
2026-04-21 10:01 -38.05654 144.46403 760 ft 199 kts 187°
2026-04-21 10:01 -38.06930 144.46384 2218 ft 185 kts 167°
2026-04-21 10:01 -38.07955 144.47272 3334 ft 183 kts 121°
2026-04-21 10:02 -38.07572 144.50576 4740 ft 216 kts 41°
2026-04-21 10:02 -38.06276 144.51553 5182 ft 218 kts 18°
2026-04-21 10:02 -38.04831 144.52167 5555 ft 220 kts 16°
2026-04-21 10:03 -38.03365 144.52771 5859 ft 224 kts 16°
2026-04-21 10:03 -38.01861 144.53415 5947 ft 242 kts 18°
2026-04-21 10:03 -38.00174 144.54164 5952 ft 266 kts 18°
2026-04-21 10:03 -37.98411 144.54970 5938 ft 271 kts 19°
2026-04-21 10:04 -37.96643 144.55798 5954 ft 271 kts 20°
2026-04-21 10:04 -37.94878 144.56635 5955 ft 271 kts 20°
2026-04-21 10:04 -37.93164 144.57624 5957 ft 272 kts 30°
2026-04-21 10:04 -37.91618 144.58967 5955 ft 267 kts 36°
2026-04-21 10:05 -37.90143 144.60393 5963 ft 265 kts 37°
2026-04-21 10:05 -37.88722 144.61782 5957 ft 253 kts 36°
2026-04-21 10:05 -37.87321 144.63112 5964 ft 251 kts 36°
2026-04-21 10:05 -37.85922 144.64428 5964 ft 251 kts 36°
2026-04-21 10:06 -37.84516 144.65744 5964 ft 252 kts 36°
2026-04-21 10:06 -37.83107 144.67059 5968 ft 252 kts 36°
2026-04-21 10:06 -37.81697 144.68373 5968 ft 251 kts 36°
2026-04-21 10:06 -37.80504 144.69976 5914 ft 252 kts 60°
2026-04-21 10:07 -37.80033 144.72076 5689 ft 251 kts 89°
2026-04-21 10:07 -37.80418 144.74211 5449 ft 252 kts 117°
2026-04-21 10:07 -37.81551 144.75860 5094 ft 249 kts 143°
2026-04-21 10:07 -37.83145 144.76686 4342 ft 247 kts 168°
2026-04-21 10:08 -37.84836 144.77025 3898 ft 249 kts 172°
2026-04-21 10:08 -37.86548 144.77330 3528 ft 249 kts 172°
2026-04-21 10:08 -37.88247 144.77749 3147 ft 249 kts 158°
2026-04-21 10:08 -37.89623 144.79008 2990 ft 246 kts 127°
2026-04-21 10:09 -37.90304 144.80945 2972 ft 242 kts 98°
2026-04-21 10:09 -37.90469 144.83037 2970 ft 243 kts 92°
2026-04-21 10:09 -37.90487 144.85162 2953 ft 241 kts 79°
2026-04-21 10:09 -37.89824 144.87065 2965 ft 237 kts 49°
2026-04-21 10:10 -37.88504 144.88255 2971 ft 235 kts 18°
2026-04-21 10:10 -37.86903 144.88422 2967 ft 233 kts 348°
2026-04-21 10:10 -37.85481 144.87584 2959 ft 213 kts 327°
2026-04-21 10:10 -37.84154 144.86923 2938 ft 202 kts 356°
2026-04-21 10:11 -37.82761 144.87161 3018 ft 205 kts
2026-04-21 10:11 -37.81349 144.87099 2972 ft 203 kts 352°
2026-04-21 10:11 -37.79948 144.86840 2981 ft 203 kts 351°
2026-04-21 10:11 -37.78652 144.86169 2939 ft 206 kts 321°
2026-04-21 10:12 -37.77867 144.84653 2998 ft 215 kts 289°
2026-04-21 10:12 -37.77533 144.82688 2992 ft 236 kts 282°
2026-04-21 10:12 -37.77245 144.80629 2972 ft 238 kts 282°
2026-04-21 10:12 -37.76954 144.78558 2963 ft 240 kts 281°
2026-04-21 10:13 -37.76663 144.76485 2964 ft 239 kts 281°
2026-04-21 10:13 -37.76726 144.74394 2963 ft 240 kts 254°
2026-04-21 10:13 -37.77601 144.72619 2966 ft 242 kts 224°
2026-04-21 10:13 -37.79030 144.71671 2966 ft 228 kts 192°
2026-04-21 10:14 -37.80602 144.71697 2984 ft 228 kts 173°
2026-04-21 10:14 -37.82176 144.72002 2976 ft 229 kts 172°
2026-04-21 10:14 -37.83745 144.72314 2973 ft 228 kts 172°
2026-04-21 10:14 -37.85314 144.72625 2971 ft 228 kts 172°
2026-04-21 10:15 -37.86881 144.72936 2964 ft 228 kts 172°
2026-04-21 10:15 -37.88447 144.73244 2967 ft 228 kts 171°
2026-04-21 10:15 -37.90010 144.73547 2966 ft 228 kts 172°
2026-04-21 10:15 -37.91586 144.73851 2970 ft 229 kts 172°
2026-04-21 10:16 -37.93164 144.74159 2962 ft 229 kts 172°
2026-04-21 10:16 -37.94716 144.74588 2940 ft 230 kts 156°
2026-04-21 10:16 -37.95590 144.75311 2947 ft 222 kts 134°
2026-04-21 10:16 -37.96285 144.76855 2911 ft 191 kts 98°
2026-04-21 10:17 -37.96427 144.78519 2989 ft 190 kts 91°
2026-04-21 10:17 -37.96529 144.80186 2977 ft 189 kts 92°
2026-04-21 10:17 -37.96635 144.81844 2960 ft 189 kts 92°
2026-04-21 10:17 -37.96729 144.83507 2957 ft 189 kts 85°
2026-04-21 10:18 -37.96324 144.85019 2926 ft 181 kts 47°
2026-04-21 10:18 -37.95287 144.85840 2984 ft 178 kts 14°
2026-04-21 10:18 -37.94074 144.86194 2988 ft 179 kts 12°
2026-04-21 10:18 -37.92849 144.86534 2966 ft 182 kts 12°
2026-04-21 10:19 -37.91598 144.86690 2942 ft 181 kts 349°
2026-04-21 10:19 -37.90369 144.86319 2988 ft 182 kts 350°
2026-04-21 10:19 -37.89125 144.85981 2973 ft 183 kts 346°
2026-04-21 10:19 -37.87892 144.85607 2972 ft 182 kts 347°
2026-04-21 10:20 -37.86652 144.85269 2966 ft 182 kts 353°
2026-04-21 10:20 -37.85389 144.85174 2974 ft 182 kts 358°
2026-04-21 10:20 -37.84122 144.85123 2966 ft 182 kts 358°
2026-04-21 10:20 -37.82852 144.85066 2970 ft 183 kts 358°
2026-04-21 10:21 -37.81602 144.85009 2773 ft 174 kts 357°
2026-04-21 10:21 -37.80377 144.84955 2338 ft 179 kts 358°
2026-04-21 10:21 -37.79138 144.84909 2030 ft 176 kts 357°
2026-04-21 10:21 -37.77911 144.84870 1976 ft 177 kts 359°
2026-04-21 10:22 -37.76682 144.84918 1971 ft 177 kts
2026-04-21 10:22 -37.75451 144.84998 1851 ft 178 kts
2026-04-21 10:22 -37.74272 144.85066 1440 ft 160 kts
2026-04-21 10:22 -37.73203 144.85004 1116 ft 150 kts 353°
2026-04-21 10:23 -37.72177 144.84767 980 ft 149 kts 349°
2026-04-21 10:23 -37.71157 144.84523 821 ft 150 kts 353°
2026-04-21 10:23 -37.70125 144.84383 666 ft 148 kts 354°
2026-04-21 10:23 -37.69102 144.84181 474 ft 148 kts 353°
2026-04-21 10:24 -37.68096 144.84000 365 ft 138 kts 354°
2026-04-21 10:24 -37.67413 144.83882 377 ft 65 kts 352°
2026-04-21 10:24 -37.67057 144.83834 391 ft 37 kts
2026-04-21 10:24 -37.66898 144.83884 395 ft 0 kts 21°
2026-04-21 10:26 -37.66892 144.83887 395 ft 5 kts 21°
2026-04-21 10:26 -37.66823 144.83921 395 ft 16 kts 21°
2026-04-21 10:26 -37.66731 144.83997 396 ft 13 kts 63°
2026-04-21 10:27 -37.66720 144.84112 396 ft 14 kts 98°
2026-04-21 10:27 -37.66777 144.84185 398 ft 16 kts 155°
2026-04-21 10:27 -37.66900 144.84213 394 ft 19 kts 172°
2026-04-21 10:27 -37.67031 144.84236 393 ft 19 kts 172°
2026-04-21 10:28 -37.67163 144.84262 390 ft 19 kts 171°
2026-04-21 10:28 -37.67296 144.84289 387 ft 19 kts 171°
2026-04-21 10:28 -37.67429 144.84313 384 ft 20 kts 172°
2026-04-21 10:28 -37.67565 144.84338 381 ft 20 kts 172°
2026-04-21 10:29 -37.67708 144.84363 377 ft 21 kts 172°
2026-04-21 10:29 -37.67825 144.84409 374 ft 10 kts 123°
2026-04-21 10:29 -37.67826 144.84513 374 ft 16 kts 82°
2026-04-21 10:29 -37.67793 144.84588 378 ft 5 kts 32°
2026-04-21 10:30 -37.67744 144.84644 378 ft 10 kts 61°
2026-04-21 10:30 -37.67734 144.84721 379 ft 11 kts 83°
2026-04-21 10:30 -37.67738 144.84775 379 ft 3 kts 128°
2026-04-21 10:30 -37.67769 144.84780 378 ft 9 kts 174°
2026-04-21 10:31 -37.67812 144.84787 377 ft 3 kts 171°
2026-04-21 10:31 -37.67818 144.84788 377 ft 0 kts 171°